If you wish to contribute or participate in the discussions about articles you are invited to join SKYbrary as a registered user

 Actions

Abu Musa Airport

From SKYbrary Wiki

OIBA
Airport
ICAO: OIBA – IATA: AEU
Summary
Name Abu Musa Airport
Region Asia and Pacific
Territory Iran IR.gif
Location Abu Musa Island, Hormozgan
Serving Abu Musa
Elevation 7.01 m
23 ft7.01 m
Coordinates 25° 52' 33.42" N, 55° 1' 57.84" E
Runways
Designator Length Width Surface ROPS
8/26 2986 m9,796.588 ft
45 m147.638 ft
ASP /


METAR
Observation OIBA 111000Z 21004KT 5000 FEW030 OVC100 25/20 Q1010
Station Abumusa Island / Abumusa
Date/Time 11 April 2019 10:00:00
Wind direction 210°
Wind speed 04 kts
Lowest cloud amount few clouds
Temperature 25°C
Dew point 20°C
Humidity 73%
QNH 1010 hPa
Weather condition n/a

Abu Musa Airport or Abumusa Airport is an airport serving Abu Musa Island, in the Hormozgan Province in Iran.

Climatology

Hot desert climate (Köppen climate classification BWh).

Maps

Terrain

Loading map...

Airport Layout

Loading map...


Accidents & Serious Incidents at or in vicinity of OIBA

None on SKYbrary